This is the latest recevied weather packets stored in our database for station/object DB0ADS-6. If no packets are shown the sender has not sent any weather packets the latest 1 day(s).
| Time | Temp. | Humidity | Pressure | Rain* | Wind** | Luminosity | Snow |
|---|---|---|---|---|---|---|---|
| 1777978258 | 20.56° C | 50% | 1005.6 hPa | 0 mm | 0.89 m/s, 90° | - | - |
| 1777977956 | 20.56° C | 50% | 1005.6 hPa | 0 mm | 0.89 m/s, 356° | - | - |
| 1777977654 | 20° C | 50% | 1005.6 hPa | 0 mm | 1.34 m/s, 326° | - | - |
| 1777977353 | 20° C | 50% | 1005.7 hPa | 0 mm | 0.89 m/s, 315° | - | - |
| 1777977051 | 20° C | 51% | 1005.7 hPa | 0 mm | 1.34 m/s, 311° | - | - |
| 1777976748 | 20.56° C | 50% | 1005.8 hPa | 0 mm | 0.89 m/s, 1° | - | - |
| 1777976447 | 20.56° C | 50% | 1005.8 hPa | 0 mm | 1.34 m/s, 6° | - | - |
| 1777976145 | 20.56° C | 50% | 1005.9 hPa | 0 mm | 0.45 m/s, 338° | - | - |
| 1777975843 | 20.56° C | 51% | 1005.9 hPa | 0 mm | 0.45 m/s, 315° | - | - |
| 1777975541 | 20.56° C | 49% | 1005.9 hPa | 0 mm | 1.34 m/s, 311° | - | - |
| 1777975240 | 21.11° C | 49% | 1005.9 hPa | 0 mm | 1.34 m/s, 326° | - | - |
| 1777974938 | 20.56° C | 51% | 1006 hPa | 0 mm | 1.34 m/s, 335° | - | - |
| 1777974636 | 20.56° C | 53% | 1006 hPa | 0 mm | 1.34 m/s, 37° | - | - |
| 1777974334 | 20° C | 53% | 1006.1 hPa | 0 mm | 0.89 m/s, 338° | - | - |
| 1777974053 | 20.56° C | 53% | 1006.2 hPa | 0 mm | 1.34 m/s, 19° | - | - |
| 1777973730 | 20.56° C | 53% | 1006.2 hPa | 0 mm | 1.34 m/s, 336° | - | - |
| 1777973451 | 20.56° C | 53% | 1006.3 hPa | 0 mm | 0.89 m/s, 332° | - | - |
| 1777973127 | 20.56° C | 56% | 1006.4 hPa | 0 mm | 1.79 m/s, 352° | - | - |
| 1777972826 | 20.56° C | 55% | 1006.5 hPa | 0 mm | 0.89 m/s, 315° | - | - |
| 1777972524 | 20° C | 56% | 1006.5 hPa | 0 mm | 0.45 m/s, 15° | - | - |
| 1777972221 | 18.89° C | 58% | 1006.5 hPa | 0 mm | 0.45 m/s, 321° | - | - |
| 1777971920 | 19.44° C | 56% | 1006.6 hPa | 0 mm | 0.45 m/s, 13° | - | - |
| 1777971618 | 20° C | 54% | 1006.6 hPa | 0 mm | 0.89 m/s, 63° | - | - |
| 1777971337 | 19.44° C | 55% | 1006.6 hPa | 0 mm | 0.45 m/s, 20° | - | - |
| 1777971075 | 20° C | 57% | 1006.6 hPa | 0 mm | 1.34 m/s, 25° | - | - |
* Rain latest hour (hover to see other rain measurements)
** Current wind speed in m/s (hover to see current wind gust speed)